GW3347 Weather Reports


time (UTC)temp
F
wind
direction
speed
knots
gust
knots
rain 1hr
in
rain 24hr
in
rain mn
in
humidity
%
barometer
mb
20260507091533 54 0 0.0 0.0 0.00 0.17 0.06 90 1011.3
20260507090029 54 0 0.0 0.0 0.01 0.17 0.06 90 1011.0
20260507084531 54 0 0.0 0.0 0.01 0.17 0.06 90 1010.9
20260507083032 54 0 0.0 0.0 0.01 0.17 0.06 90 1010.9
20260507081537 55 0 0.0 0.0 0.01 0.17 0.06 90 1010.4
20260507080031 55 0 0.0 0.0 0.00 0.16 0.05 90 1010.1
20260507074531 56 0 0.0 0.9 0.01 0.16 0.05 91 1010.0
20260507073031 56 0 0.0 0.0 0.01 0.16 0.05 91 1009.8
20260507071530 56 0 0.0 0.0 0.01 0.16 0.05 91 1009.7
20260507070041 56 0 0.0 0.0 0.01 0.15 0.04 91 1009.9
20260507064530 57 0 0.0 0.0 0.01 0.15 0.04 90 1009.7
20260507063035 57 0 0.0 2.6 0.02 0.15 0.04 90 1009.3
20260507061537 58 0 0.0 0.0 0.02 0.15 0.04 90 1009.2
20260507060032 59 0 0.0 0.0 0.02 0.14 0.03 90 1009.6
20260507054533 59 0 0.0 0.0 0.02 0.14 0.03 89 1009.6
20260507053031 60 0 0.0 4.3 0.02 0.13 0.02 89 1009.5
20260507051532 61 0 0.0 0.0 0.02 0.13 0.02 88 1009.6
20260507050032 61 0 0.0 0.0 0.01 0.12 0.01 86 1009.2
20260507044531 62 0 0.0 3.5 0.01 0.12 0.01 85 1009.9
20260507043030 62 0 0.0 0.0 0.00 0.11 0.00 84 1009.6
20260507041530 62 0 0.0 0.0 0.00 0.11 0.00 84 1009.5
20260507040033 63 0 0.0 0.9 0.00 0.11 0.00 85 1009.3
20260507034530 64 0 0.0 8.7 0.00 0.11 0.11 89 1009.4
20260507033043 65 0 0.0 0.0 0.00 0.11 0.11 89 1009.2
20260507031545 65 0 0.0 0.0 0.00 0.11 0.11 89 1009.0
20260507030033 64 0 0.0 0.0 0.00 0.11 0.11 90 1009.1
20260507024534 64 0 0.0 0.0 0.00 0.11 0.11 90 1008.8
20260507023029 64 0 0.0 0.0 0.00 0.11 0.11 89 1008.6
20260507021533 64 0 0.0 0.0 0.00 0.11 0.11 89 1008.3
20260507020034 64 0 0.0 0.0 0.00 0.11 0.11 88 1008.5
20260507014541 64 0 0.0 0.0 0.00 0.11 0.11 88 1008.5
20260507013038 65 0 0.0 0.0 0.00 0.11 0.11 87 1009.0
20260507011536 65 0 0.0 0.0 0.00 0.11 0.11 86 1009.2
20260507010040 65 0 0.0 0.0 0.00 0.11 0.11 85 1009.0
20260507004532 66 0 0.0 0.0 0.00 0.11 0.11 84 1008.6
20260507003031 67 0 0.0 0.0 0.00 0.11 0.11 83 1008.7
20260507001534 67 0 0.0 0.0 0.00 0.11 0.11 82 1008.6
20260507000030 68 0 0.0 0.0 0.00 0.11 0.11 81 1008.5
20260506234531 68 0 0.0 0.0 0.00 0.11 0.11 80 1008.3
20260506233030 68 0 0.0 0.0 0.00 0.11 0.11 80 1008.2
20260506231534 68 0 0.0 0.0 0.00 0.11 0.11 79 1008.0
20260506230032 69 0 0.0 1.7 0.00 0.11 0.11 78 1008.2
20260506224559 69 0 0.0 2.6 0.00 0.11 0.11 78 1007.8
20260506223028 69 0 0.0 0.9 0.00 0.11 0.11 77 1008.0
20260506221532 70 0 0.0 1.7 0.00 0.11 0.11 77 1008.1
20260506220032 70 0 0.0 0.0 0.00 0.11 0.11 77 1007.9
20260506214530 70 0 0.0 0.9 0.00 0.11 0.11 77 1008.2
20260506213032 70 0 0.0 5.2 0.00 0.11 0.11 77 1007.8
20260506211530 70 0 0.0 4.3 0.00 0.11 0.11 78 1007.7
20260506210034 69 0 0.0 4.3 0.00 0.11 0.11 77 1007.5
20260506204530 69 242 0.0 6.1 0.00 0.11 0.11 78 1007.4
20260506203038 69 0 0.0 3.5 0.00 0.11 0.11 80 1007.5
20260506201537 69 0 0.0 9.6 0.00 0.11 0.11 79 1007.6
20260506200037 69 0 0.0 4.3 0.00 0.11 0.11 79 1007.5
20260506194531 69 0 0.0 7.0 0.00 0.11 0.11 79 1007.6
20260506193030 68 0 0.9 7.8 0.00 0.11 0.11 80 1007.7
20260506191532 68 0 0.0 8.7 0.00 0.11 0.11 80 1007.8
20260506190038 68 0 0.0 7.0 0.00 0.11 0.11 79 1008.0
20260506184535 68 0 0.0 9.6 0.00 0.11 0.11 79 1008.0
20260506183032 68 0 0.0 10.4 0.00 0.11 0.11 80 1008.3
20260506181530 67 294 0.9 12.2 0.00 0.11 0.11 81 1008.7
20260506180030 66 0 0.9 12.2 0.01 0.11 0.11 83 1008.8
20260506174529 66 0 0.0 8.7 0.01 0.11 0.11 84 1008.8
20260506173040 65 0 0.0 13.9 0.01 0.11 0.11 85 1008.7
20260506171532 64 209 0.0 8.7 0.02 0.11 0.11 86 1008.9
20260506170036 64 0 1.7 11.3 0.01 0.10 0.10 87 1008.8
20260506164533 64 244 0.0 7.8 0.01 0.10 0.10 88 1009.0
20260506163036 64 209 0.0 7.8 0.02 0.10 0.10 89 1008.9
20260506161528 63 199 0.9 8.7 0.02 0.09 0.09 90 1008.8
20260506160028 63 0 0.0 9.6 0.03 0.09 0.09 90 1009.3
20260506154532 62 232 0.0 9.6 0.05 0.09 0.09 89 1009.2
20260506153030 62 0 0.0 9.6 0.06 0.08 0.08 88 1009.3
20260506151531 62 0 0.0 3.5 0.07 0.07 0.07 88 1010.0
20260506150030 62 0 0.0 3.5 0.06 0.06 0.06 87 1010.0
20260506144534 62 0 0.0 2.6 0.04 0.04 0.04 85 1010.2
20260506143033 63 0 0.0 5.2 0.01 0.01 0.01 83 1010.1
20260506141533 64 0 0.0 0.9 0.00 0.00 0.00 82 1010.0
20260506140032 64 0 0.9 11.3 0.00 0.00 0.00 78 1010.2
20260506134528 65 0 0.0 4.3 0.00 0.00 0.00 75 1010.3
20260506133028 65 0 0.0 5.2 0.00 0.00 0.00 75 1010.3
20260506131544 65 0 0.0 1.7 0.00 0.00 0.00 74 1010.0
20260506130037 65 0 0.0 3.5 0.00 0.00 0.00 74 1009.8
20260506124529 65 142 0.0 7.0 0.00 0.00 0.00 74 1009.8
20260506123031 65 0 0.0 1.7 0.00 0.00 0.00 74 1010.0
20260506121530 65 0 0.9 9.6 0.00 0.00 0.00 74 1010.0
20260506120033 66 0 0.0 9.6 0.00 0.00 0.00 74 1010.0
20260506114534 66 0 0.0 12.2 0.00 0.00 0.00 74 1009.9
20260506113030 65 0 0.0 13.0 0.00 0.00 0.00 75 1009.8
20260506111531 65 0 0.0 12.2 0.00 0.00 0.00 76 1009.7
20260506110033 65 0 0.0 7.0 0.00 0.00 0.00 76 1009.6
20260506104533 65 0 0.0 6.1 0.00 0.00 0.00 77 1009.5
20260506103038 64 0 0.0 10.4 0.00 0.00 0.00 77 1009.5
20260506101543 64 0 0.0 7.8 0.00 0.00 0.00 77 1009.5
20260506100039 64 0 0.0 3.5 0.00 0.00 0.00 77 1009.5
20260506094528 65 0 0.9 9.6 0.00 0.00 0.00 76 1009.6
20260506093039 65 287 0.0 7.0 0.00 0.00 0.00 75 1009.7